Home > Time Zones > World Clock > Weather > India > Dausa > Past weeks

Flag for India Weather past 2 weeks in Dausa, Rajasthan, India

Now
86 °F

Passing clouds.


Feels Like: 91 °F
Forecast: 82 / 98 °F
Wind: 7 mph from Northwest

Location: Jaipur / Sanganer

Current Time: Aug 28, 2014 at 1:08:35 AM

Latest Report: Aug 28, 2014 at 12:00 AM


Visibility: 2 mi

Pressure: 29.71 "Hg

Humidity: 59%

Dew point: 70 °F

Location of DausaLocation

Historic Weather in Dausa — Graph

°F

Dausa temperature yesterday

Maximum temperature yesterday: 97 °F (at 3:00 PM)
Minimum temperature yesterday: 81 °F (at 6:00 AM)
Average temperature yesterday: 89 °F

Past Weeks' High & Low Weather Summary

 TemperatureHumidityPressure
High100 °F (Aug 25, 3:00 PM)94% (Aug 13, 5:00 AM)30.01 "Hg (Aug 13, 5:00 AM)
Low77 °F (Aug 14, 6:30 AM)27% (Aug 25, 4:00 PM)29.56 "Hg (Aug 14, 4:00 PM)
Average87 °F61%29.72 "Hg
* Reported Aug 12 11:00 PM — Aug 27 11:00 PM, Dausa, Weather by CustomWeather, © 2014

Note: Actual official high and low records may vary slightly from our data, if they occured in-between our weather recording intervals... More about our weather records

Advertising

Dausa weather history for previous 24 hours

 ConditionsComfort  
Time TempWeatherWind HumidityBarometerVisibility
11:00 PM
Aug 27
86 °FPassing clouds.8 mph59%29.71 "Hg2 mi
10:00 PM88 °FPassing clouds.10 mph55%29.68 "Hg2 mi
8:00 PM91 °FPassing clouds.3 mph49%29.65 "Hg2 mi
7:00 PM93 °FScattered clouds.8 mph41%29.62 "Hg2 mi
6:00 PM95 °FScattered clouds.7 mph36%29.59 "Hg2 mi
5:00 PM97 °FScattered clouds.6 mph32%29.59 "Hg2 mi
4:00 PM97 °FScattered clouds.7 mph32%29.62 "Hg2 mi
3:00 PM97 °FScattered clouds.5 mph32%29.65 "Hg2 mi
2:00 PM95 °FScattered clouds.6 mph39%29.68 "Hg2 mi
12:00 PM95 °FHaze.5 mph47%29.74 "Hg2 mi
11:00 AM91 °FHaze.6 mph52%29.74 "Hg2 mi
10:00 AM88 °FHaze.8 mph59%29.74 "Hg2 mi
9:00 AM86 °FHaze.9 mph62%29.74 "Hg2 mi
8:00 AM84 °FHaze.9 mph66%29.74 "Hg2 mi
7:00 AM82 °FHaze.5 mph70%29.71 "Hg2 mi
6:00 AM81 °FHaze.5 mph74%29.71 "Hg2 mi
5:00 AM82 °FPassing clouds.6 mph70%29.68 "Hg2 mi
4:00 AM82 °FPassing clouds.6 mph70%29.71 "Hg2 mi
3:00 AM82 °FPassing clouds.6 mph70%29.71 "Hg2 mi
2:00 AM82 °FPassing clouds.5 mph70%29.71 "Hg2 mi
1:00 AM84 °FPassing clouds.7 mph62%29.71 "Hg2 mi
Weather by CustomWeather, © 2014

See weather overviewHow to use our weather pages